[[{"header":{"parameterUnit":"m.s-1","parameterCategory":1,"la1":30.2991,"la2":30.254,"lo1":-89.0895,"lo2":-89.0444,"dy":0.0017,"dx":0.0017,"nx":28,"ny":28,"refTime":"2024-07-21T09:00:00:Z","depth":0,"parameterNumber":2,"parameterNumberName":"U-component_of_WINDS"},"data":[0,0,0,0,0,0,0,0,0,0,0,0,0,0,0,0,0,0,0,0,0,0,0,0,0,0,0,0,0,0,0,0,0,0,0,0,0,0,0,0,0,0,0,0,0,0,0,0,0,0,0,0,0,0,0,0,0,0,0.8796,0.8797,0,0.8831,0.8832,0.8832,0.8818,0.8817,0.8816,0.8816,0.885,0.8852,0.8854,0,0,0,0,0,0,0,0,0,0,0,0,0,0.8715,0.8716,0.8796,0.8797,0.8797,0.8831,0.8832,0.8832,0.8818,0.8817,0.8816,0.8815,0.885,0.8852,0.8854,0,0,0,0,0,0,0,0,0,0,0,0,0,0.875,0.8717,0.8796,0.8794,0.8794,0.8831,0.8832,0.8832,0.8818,0.8817,0.8816,0.8815,0.8849,0.8852,0.8854,0.8895,0,0,0.8862,0.8863,0,0,0,0,0,0,0,0,0.8748,0.8753,0.8794,0.8794,0.8795,0.8819,0.8816,0.8853,0.8819,0.8809,0.8816,0.8814,0.8841,0.8844,0.8853,0.8896,0.8898,0.8862,0.8864,0.8865,0.8866,0,0,0,0,0,0,0,0.8746,0.8751,0.881,0.8795,0.8795,0.8791,0.8795,0.8823,0.8832,0.881,0.8809,0.8813,0.8841,0.8851,0.8854,0.8898,0.8862,0.8864,0.8866,0.8867,0.8975,0.8976,0,0,0,0,0,0,0.8743,0.8749,0.8809,0.8811,0.8768,0.8793,0.8797,0.8812,0.8831,0.8833,0.8814,0.8813,0.8847,0.8851,0.8855,0.8903,0.8865,0.8867,0.8869,0.8973,0.8975,0.8976,0,0,0,0,0,0,0.8742,0.8749,0.8807,0.878,0.8787,0.8796,0.8813,0.8814,0.8824,0.8835,0.8836,0.8823,0.8846,0.8852,0.8885,0.8904,0.8868,0.8871,0.8972,0.8974,0.8976,0.8999,0,0,0,0,0,0,0.8739,0.8748,0.8764,0.8781,0.8789,0.8837,0.8814,0.8815,0.8828,0.8826,0.8843,0.8845,0.8846,0.8881,0.8887,0.8907,0.8873,0.897,0.8973,0.8975,0.8997,0.9002,0.9006,0,0,0,0,0,0.8736,0.8769,0.8765,0.8772,0.8809,0.8838,0.8843,0.8844,0.883,0.8846,0.8852,0.8844,0.8901,0.8885,0.8891,0.8912,0.8969,0.8972,0.8975,0.8995,0.9001,0.9006,0,0,0,0,0,0,0.8755,0.8771,0.8767,0.8806,0.8821,0.8836,0.8856,0.885,0.8869,0.8866,0.8866,0.887,0.8904,0.8911,0.8893,0.8951,0.8933,0.8937,0.8945,0.8951,0.8956,0.8953,0.8875,0,0,0,0,0,0.8763,0.8786,0.8799,0.8833,0.884,0.8847,0.886,0.8859,0.8874,0.888,0.8889,0.8904,0.8924,0.8938,0.8958,0.8998,0.9001,0.9015,0.902,0.9024,0.9027,0.9048,0.9054,0.8986,0.8986,0.8986,0,0,0.8781,0.8793,0.8808,0.8837,0.8848,0.8871,0.8852,0.8877,0.8894,0.8884,0.8915,0.8923,0.8939,0.8975,0.8991,0.8982,0.9047,0.9027,0.903,0.9032,0.9051,0.9058,0.9064,0.8988,0.8988,0.8988,0,0,0.8826,0.8838,0.8866,0.8878,0.8895,0.8899,0.8906,0.8922,0.8926,0.8958,0.895,0.897,0.9006,0.9018,0.9028,0.9076,0.9069,0.9083,0.9107,0.9127,0.9132,0.9137,0.9153,0.9159,0.9086,0.9087,0.9087,0,0.8846,0.8881,0.8881,0.8907,0.892,0.8911,0.894,0.8951,0.8974,0.8982,0.8972,0.9017,0.9027,0.9065,0.9077,0.9086,0.9093,0.9081,0.9131,0.9136,0.914,0.9156,0.9162,0.9088,0.9088,0.9088,0.9088,0,0.8904,0.8928,0.8949,0.8972,0.8986,0.9013,0.9017,0.9032,0.903,0.9035,0.9067,0.9079,0.91,0.911,0.9108,0.9147,0.9141,0.9131,0.9112,0.9148,0.9163,0.9169,0.909,0.909,0.9089,0.9089,0,0,0.8961,0.8983,0.8991,0.9,0.9019,0.9037,0.9063,0.9085,0.9097,0.9113,0.9134,0.9165,0.9155,0.9167,0.9167,0.9184,0.922,0.9172,0.9172,0.918,0.9263,0.927,0.9277,0.9216,0.9217,0.9218,0.9262,0,0.9006,0.9053,0.9054,0.9096,0.9117,0.911,0.9132,0.9145,0.915,0.9169,0.9174,0.9196,0.9182,0.9189,0.9206,0.9212,0.9237,0.9209,0.9235,0.9236,0.923,0.9285,0.9293,0.9334,0.9268,0.9268,0.9269,0,0.9065,0.9083,0.9127,0.9142,0.9151,0.9171,0.919,0.9209,0.9223,0.9225,0.9239,0.9235,0.9261,0.9241,0.9276,0.9258,0.9268,0.9273,0.9274,0.9276,0.9254,0.9288,0.9347,0.9353,0.9278,0.9278,0.9277,0,0.9101,0.9136,0.9167,0.9176,0.9193,0.9208,0.9216,0.9229,0.9242,0.9258,0.9266,0.9286,0.9296,0.9311,0.9313,0.9298,0.9347,0.9328,0.9349,0.9349,0.936,0.9359,0.9421,0.9368,0.9368,0.9367,0.9367,0,0.9151,0.9178,0.9183,0.9202,0.9232,0.9233,0.9262,0.9269,0.9281,0.93,0.9294,0.9313,0.9314,0.9332,0.9334,0.9362,0.9367,0.9369,0.9369,0.9369,0.9369,0.9376,0.9373,0.9369,0.9369,0.9368,0.9368,0,0.9196,0.9201,0.9234,0.9248,0.9252,0.9273,0.9285,0.9302,0.9307,0.9331,0.9337,0.9344,0.9365,0.9368,0.9393,0.9394,0.9428,0.9425,0.9423,0.9422,0.9443,0.9441,0.9511,0.9519,0.9461,0.9462,0.9462,0,0.9227,0.9248,0.9264,0.9277,0.9286,0.9307,0.9319,0.932,0.9334,0.9351,0.9367,0.9388,0.9404,0.9439,0.9446,0.9464,0.9462,0.9485,0.9465,0.9464,0.9461,0.946,0.9461,0.9489,0.9489,0.949,0.949,0,0.9282,0.9283,0.9302,0.9322,0.9337,0.9352,0.9367,0.9377,0.938,0.9395,0.9417,0.943,0.9456,0.9476,0.9495,0.9502,0.9497,0.9497,0.9502,0.9503,0.95,0.9501,0.9433,0.9495,0.9494,0.9494,0.9494,0.9494,0.932,0.9338,0.9352,0.9373,0.9384,0.9398,0.9415,0.9421,0.9439,0.946,0.946,0.9484,0.9497,0.9521,0.953,0.9548,0.9541,0.9549,0.9551,0.9553,0.9555,0.9498,0.9552,0.9552,0.9552,0.9551,0.9551,0,0.9374,0.9382,0.9402,0.9422,0.9438,0.9432,0.9447,0.9461,0.9482,0.9495,0.9512,0.9537,0.9556,0.9564,0.9584,0.9597,0.9594,0.9602,0.96,0.9602,0.9561,0.9554,0.9603,0.9603,0.9603,0.9603,0.9603,0.9603,0.9404,0.9433,0.9436,0.947,0.9478,0.9502,0.9511,0.9523,0.9533,0.9561,0.9578,0.9583,0.9594,0.9614,0.9631,0.9633,0.964,0.9648,0.9649,0.961,0.9605,0.96,0.9593,0.965,0.965,0.9688,0.9688,0.9689]},{"header":{"parameterUnit":"m.s-1","parameterCategory":1,"la1":30.2991,"la2":30.254,"lo1":-89.0895,"lo2":-89.0444,"dy":0.0017,"dx":0.0017,"nx":28,"ny":28,"refTime":"2024-07-21T09:00:00:Z","depth":0,"parameterNumber":3,"parameterNumberName":"V-component_of_WINDS"},"data":[0,0,0,0,0,0,0,0,0,0,0,0,0,0,0,0,0,0,0,0,0,0,0,0,0,0,0,0,0,0,0,0,0,0,0,0,0,0,0,0,0,0,0,0,0,0,0,0,0,0,0,0,0,0,0,0,0,0,1.5563,1.5564,0,1.5651,1.5652,1.5653,1.562,1.5618,1.5616,1.5614,1.57,1.5704,1.5709,0,0,0,0,0,0,0,0,0,0,0,0,0,1.536,1.5364,1.5563,1.5564,1.5565,1.5651,1.5652,1.5653,1.562,1.5618,1.5615,1.5613,1.5699,1.5704,1.5709,0,0,0,0,0,0,0,0,0,0,0,0,0,1.5448,1.5366,1.5563,1.5559,1.556,1.5651,1.5652,1.5654,1.5621,1.5618,1.5615,1.5612,1.5697,1.5703,1.571,1.5808,0,0,1.5729,1.5731,0,0,0,0,0,0,0,0,1.5443,1.5456,1.5559,1.556,1.556,1.5622,1.5612,1.5705,1.5622,1.5598,1.5614,1.561,1.5676,1.5684,1.5707,1.5812,1.5816,1.5729,1.5733,1.5736,1.5737,0,0,0,0,0,0,0,1.5437,1.5452,1.5598,1.556,1.5561,1.5551,1.556,1.563,1.5653,1.5599,1.5597,1.5608,1.5676,1.5701,1.5709,1.5817,1.5729,1.5735,1.5738,1.5741,1.6004,1.6007,0,0,0,0,0,0,1.5432,1.5447,1.5595,1.5601,1.5494,1.5557,1.5568,1.5605,1.5652,1.5656,1.5611,1.5606,1.5692,1.5702,1.5712,1.5829,1.5736,1.5742,1.5745,1.6001,1.6005,1.6008,0,0,0,0,0,0,1.5427,1.5445,1.5592,1.5523,1.5541,1.5564,1.5606,1.5608,1.5633,1.566,1.5664,1.5633,1.569,1.5703,1.5784,1.5831,1.5744,1.575,1.5997,1.6002,1.6007,1.6064,0,0,0,0,0,0,1.5422,1.5444,1.5484,1.5524,1.5545,1.5665,1.5609,1.5612,1.5645,1.564,1.5682,1.5686,1.5689,1.5775,1.579,1.5838,1.5755,1.5993,1.5999,1.6005,1.6058,1.607,1.6081,0,0,0,0,0,1.5415,1.5496,1.5486,1.5504,1.5595,1.5667,1.5679,1.5682,1.5649,1.5687,1.5704,1.5684,1.5823,1.5784,1.5801,1.5851,1.599,1.5998,1.6005,1.6053,1.6068,1.6081,0,0,0,0,0,0,1.546,1.5502,1.549,1.5588,1.5624,1.5662,1.5711,1.5698,1.5744,1.5737,1.5737,1.5747,1.583,1.5848,1.5803,1.5947,1.5901,1.5913,1.5932,1.5947,1.5958,1.5952,1.576,0,0,0,0,0,1.5481,1.5538,1.5571,1.5653,1.5672,1.5688,1.572,1.5719,1.5756,1.5771,1.5794,1.5829,1.5881,1.5915,1.5964,1.606,1.6067,1.6103,1.6114,1.6123,1.6133,1.6182,1.6198,1.6032,1.6032,1.6032,0,0,1.5525,1.5555,1.5591,1.5663,1.5691,1.5748,1.5702,1.5764,1.5806,1.578,1.5858,1.5876,1.5915,1.6004,1.6044,1.6022,1.618,1.6133,1.614,1.6144,1.6192,1.6207,1.6221,1.6037,1.6036,1.6036,0,0,1.5635,1.5665,1.5736,1.5764,1.5807,1.5817,1.5834,1.5873,1.5884,1.5962,1.5943,1.5991,1.608,1.6109,1.6135,1.6251,1.6234,1.6267,1.6326,1.6375,1.6388,1.6399,1.6439,1.6454,1.6276,1.6277,1.6277,0,1.5685,1.5772,1.5773,1.5837,1.5868,1.5847,1.5917,1.5945,1.6001,1.6022,1.5996,1.6106,1.6131,1.6225,1.6253,1.6276,1.6293,1.6263,1.6386,1.6398,1.6408,1.6446,1.6462,1.628,1.628,1.6279,1.6279,0,1.5829,1.5889,1.5941,1.5996,1.6033,1.61,1.6109,1.6145,1.614,1.6151,1.6229,1.6258,1.6312,1.6334,1.6329,1.6426,1.641,1.6386,1.634,1.6428,1.6463,1.6478,1.6285,1.6284,1.6283,1.6282,0,0,1.5973,1.6026,1.6045,1.6068,1.6113,1.6158,1.6222,1.6275,1.6305,1.6344,1.6396,1.647,1.6447,1.6476,1.6474,1.6517,1.6605,1.6486,1.6487,1.6506,1.671,1.6728,1.6745,1.6593,1.6596,1.6598,1.6706,0,1.6085,1.62,1.6201,1.6305,1.6359,1.6338,1.6393,1.6425,1.6437,1.6483,1.6494,1.6547,1.6513,1.653,1.6571,1.6585,1.6645,1.6577,1.664,1.6642,1.663,1.6764,1.6784,1.6885,1.672,1.6723,1.6724,0,1.6233,1.6276,1.6386,1.642,1.6442,1.6492,1.6539,1.6583,1.6618,1.6623,1.6654,1.6645,1.6707,1.6659,1.6744,1.6697,1.6722,1.6733,1.6737,1.6742,1.6689,1.6773,1.6918,1.6932,1.6747,1.6745,1.6743,0,1.6324,1.641,1.6486,1.6507,1.6549,1.6584,1.6603,1.6634,1.6665,1.6705,1.6724,1.677,1.6796,1.6831,1.6833,1.6798,1.6918,1.687,1.6922,1.6922,1.6948,1.6947,1.7099,1.6966,1.6965,1.6965,1.6965,0,1.645,1.6517,1.6527,1.6574,1.6648,1.6647,1.672,1.6735,1.6763,1.681,1.6794,1.6839,1.6839,1.6884,1.6886,1.6954,1.6966,1.697,1.697,1.6972,1.6971,1.6988,1.6981,1.6969,1.6968,1.6967,1.6967,0,1.6565,1.6575,1.6656,1.6688,1.6698,1.675,1.6777,1.682,1.6829,1.6889,1.6903,1.6917,1.6968,1.6974,1.7034,1.7035,1.7117,1.7109,1.7106,1.7104,1.7155,1.715,1.7323,1.7345,1.7198,1.72,1.7201,0,1.6645,1.6696,1.6733,1.6764,1.6785,1.6835,1.6866,1.6866,1.6898,1.694,1.6977,1.7027,1.7067,1.715,1.7164,1.7208,1.7201,1.7259,1.7208,1.7207,1.72,1.7197,1.7201,1.7269,1.727,1.7272,1.7273,0,1.6784,1.6785,1.6831,1.6878,1.6915,1.6951,1.6986,1.7011,1.7015,1.7052,1.7104,1.7135,1.7196,1.7244,1.7288,1.7305,1.7289,1.7288,1.7302,1.7305,1.73,1.7302,1.7132,1.7285,1.7283,1.7282,1.7282,1.7281,1.6883,1.6927,1.6959,1.7009,1.7035,1.7066,1.7108,1.7122,1.7166,1.7216,1.7212,1.727,1.7299,1.7356,1.7376,1.7419,1.7399,1.742,1.7426,1.7431,1.7435,1.7293,1.7427,1.7426,1.7426,1.7426,1.7426,0,1.702,1.704,1.7086,1.7134,1.7173,1.7155,1.7191,1.7224,1.7275,1.7304,1.7343,1.7402,1.7448,1.7465,1.751,1.7541,1.7535,1.7553,1.755,1.7554,1.7451,1.7433,1.7557,1.7557,1.7557,1.7557,1.7557,1.7557,1.7097,1.7169,1.7173,1.7256,1.7275,1.7332,1.7353,1.7381,1.7404,1.7471,1.751,1.752,1.7544,1.7589,1.763,1.7634,1.765,1.7671,1.7672,1.7575,1.7562,1.7549,1.7533,1.7675,1.7675,1.7771,1.7772,1.7773]}]]